Theta_e
325 336 323 317 310 312 308 312 321 320 322 329 329 322 320 322 316 314 340 347 351 351 349 355 359 358 359 359 359 358 359 359 359 357 356 356 354 354 354 355 356 355 355 355 355 354 353 352 353
320 318 315 312 307 306 307 311 314 321 326 330 329 325 320 324 334 336 338 349 352 352 350 352 359 359 359 359 359 359 358 357 357 356 356 355 355 355 355 355 355 355 355 355 355 356 356 355 353
318 312 312 308 305 304 304 309 315 322 326 327 325 330 326 327 335 336 345 353 353 350 349 355 359 359 358 359 358 358 357 357 356 356 356 355 355 356 355 355 355 355 355 355 354 354 353 353 353
315 314 308 306 302 305 306 310 318 319 325 329 327 323 334 342 335 342 351 353 351 348 347 358 359 358 358 359 358 358 357 356 356 357 357 357 357 357 356 355 354 353 353 352 352 351 352 353 354
311 309 306 303 302 304 305 307 310 318 325 326 329 323 328 344 349 349 351 351 349 348 348 355 359 357 357 358 359 358 357 357 357 357 356 356 356 355 355 355 355 354 354 353 353 353 354 353 353
309 307 304 303 302 304 307 310 311 324 327 328 327 324 331 346 346 348 350 350 349 348 349 355 359 358 359 358 358 358 358 357 357 356 355 355 354 352 351 351 350 350 350 351 352 353 353 353 352
307 306 302 300 301 305 310 320 317 326 327 325 328 323 335 341 346 348 350 351 350 351 350 354 355 357 357 358 358 358 357 357 356 356 355 353 352 350 350 350 351 352 352 352 351 351 351 352 351
307 307 300 301 305 314 319 326 327 327 325 331 330 325 329 340 345 347 349 349 350 351 350 352 356 355 353 352 357 357 356 356 355 355 353 351 350 349 349 351 352 353 353 353 352 351 350 352 351
305 306 303 303 306 318 323 322 327 329 326 330 332 331 338 344 345 345 344 346 347 349 350 351 351 354 355 351 353 356 355 354 353 353 351 350 349 347 346 349 353 354 354 353 352 351 353 351 350
307 306 303 305 306 318 323 325 326 324 323 327 333 339 343 344 343 339 338 338 342 344 348 350 351 352 354 351 351 354 353 353 354 351 351 349 348 347 344 346 350 351 353 354 354 354 352 349 336
304 305 305 307 307 314 323 322 324 322 321 324 329 334 338 339 339 338 338 339 341 344 347 349 352 352 350 352 351 351 350 351 351 351 351 350 346 346 344 344 344 346 346 347 349 349 345 339 338
304 305 305 307 307 312 320 323 324 327 326 330 336 337 337 335 335 335 335 337 340 343 346 348 349 350 351 352 350 348 348 348 348 349 351 349 345 344 344 341 343 346 349 349 350 349 348 344 341
305 305 305 306 307 317 324 324 324 325 329 335 336 336 335 335 336 337 339 341 342 341 343 344 349 351 352 352 350 349 347 347 347 348 350 349 347 345 345 343 343 343 346 348 348 349 348 347 345
306 305 305 306 306 319 322 320 324 325 329 331 331 330 330 330 332 334 334 336 340 341 341 342 343 348 350 351 351 348 348 348 349 348 348 350 349 348 346 345 344 344 345 346 347 348 348 348 347
305 305 306 305 306 307 313 314 320 325 327 327 327 327 327 328 329 327 329 330 331 336 338 340 342 344 347 349 349 348 347 347 348 348 349 349 350 349 349 347 346 347 349 350 350 350 350 349 349
304 304 302 304 305 303 305 304 322 325 325 323 324 325 324 324 325 326 326 327 331 333 335 338 339 341 344 345 346 346 347 348 348 349 350 349 350 352 352 350 350 352 351 350 350 349 347 348 348
303 300 300 301 308 304 307 311 320 323 323 321 321 322 322 323 324 325 327 328 330 331 333 335 338 338 343 343 348 350 353 352 352 351 351 351 353 354 354 353 354 355 352 350 348 346 347 345 346
299 299 300 300 307 313 314 312 317 320 320 318 319 319 320 320 319 321 324 325 327 329 331 333 334 336 340 347 349 347 344 342 341 340 341 345 347 350 351 353 355 354 351 349 347 346 347 345 345
302 301 300 301 306 313 311 310 315 318 318 317 317 317 318 318 318 319 320 322 324 326 328 329 331 333 337 338 339 340 336 334 335 337 338 337 338 339 343 346 349 351 349 351 351 350 347 345 346
303 302 300 305 311 314 312 310 314 317 315 316 315 315 315 315 315 317 318 320 321 322 324 326 328 330 332 334 337 338 336 333 334 335 336 336 334 335 335 339 341 342 345 348 347 349 344 343 342
301 301 300 301 312 315 312 309 313 314 314 315 315 316 315 313 313 315 317 319 320 320 321 323 326 327 329 331 332 332 332 330 329 330 330 331 331 332 334 332 332 337 339 337 339 341 340 336 337
300 302 302 300 300 299 300 296 307 315 315 313 313 314 314 314 315 316 317 318 319 319 319 321 323 325 326 328 327 327 323 320 322 323 324 325 327 327 328 330 331 331 333 333 333 336 335 335 332
301 303 302 300 299 298 296 295 299 311 313 315 313 313 314 315 315 315 316 318 319 320 318 318 320 321 322 323 323 319 319 318 319 319 322 324 325 325 325 326 327 329 332 332 332 334 336 336 335
303 302 300 299 299 294 295 295 297 304 309 313 313 312 314 315 316 317 317 318 319 318 316 315 316 317 319 319 320 320 319 318 316 318 317 318 320 321 324 325 327 327 326 329 331 334 331 331 331
303 301 296 293 293 293 296 296 299 304 310 313 314 310 314 316 316 316 316 318 318 317 314 312 314 315 318 319 319 319 319 320 318 317 317 318 317 317 320 323 324 324 328 329 330 328 326 326 327
300 301 296 289 291 294 296 294 301 311 314 316 317 312 314 315 317 316 316 316 317 317 313 310 312 314 316 318 318 319 320 317 317 318 318 317 317 318 322 321 322 324 325 327 328 326 326 324 323
300 299 299 295 293 293 296 299 307 312 312 314 314 313 313 314 315 315 317 319 319 318 316 312 312 314 315 316 318 318 319 319 318 319 320 318 321 318 320 320 320 320 322 324 325 323 323 322 321
303 302 297 298 289 287 292 293 297 307 311 313 314 311 313 316 316 317 317 318 319 317 317 313 313 314 315 316 319 318 319 319 319 320 319 320 320 321 321 320 320 319 318 320 322 321 322 322 320
299 299 297 299 296 290 288 293 304 308 314 314 316 315 315 316 316 317 317 317 318 318 315 315 313 314 315 316 317 318 319 318 318 318 319 319 320 320 319 320 319 317 317 318 319 320 319 320 320
302 300 301 295 293 294 294 294 304 306 311 316 317 317 319 318 318 318 318 317 317 317 316 314 314 313 314 315 316 317 318 319 318 318 318 319 318 320 319 319 318 316 316 317 317 316 317 317 318
Wind_Speed
3 3 1 2 3 2 3 4 1 3 2 2 4 4 1 5 4 5 3 5 15 16 13 14 12 13 12 11 13 14 13 13 13 13 13 12 11 11 11 10 10 11 11 11 10 10 10 9 9
5 2 0 1 2 1 4 3 4 4 6 5 3 2 3 5 4 9 11 9 16 16 13 12 12 12 12 11 12 13 12 12 12 11 11 11 10 10 10 9 10 10 9 9 9 8 8 6 6
3 2 2 2 1 1 3 1 4 1 2 2 3 6 5 5 4 11 5 14 15 15 14 12 13 11 12 12 13 14 14 13 12 11 11 10 10 9 9 8 8 7 7 7 6 5 5 5 5
1 2 3 2 1 3 4 6 1 3 4 4 3 7 8 9 2 1 13 17 14 12 12 12 10 10 11 10 11 12 12 12 11 10 9 8 8 7 7 7 6 6 5 5 3 3 3 4 6
2 1 2 1 3 3 4 7 5 2 5 5 2 5 6 4 6 12 12 13 15 12 9 10 8 8 9 10 11 12 12 11 10 9 8 7 7 6 5 5 4 4 3 2 2 3 5 5 6
2 1 2 2 2 4 4 3 2 4 5 5 5 6 5 3 7 10 11 12 13 12 10 9 9 8 8 9 9 10 10 10 9 8 7 7 5 4 3 3 2 2 2 3 4 5 6 5 5
1 1 2 1 3 2 3 1 4 6 9 7 4 5 3 3 7 9 11 11 11 12 10 7 7 7 6 6 7 7 8 8 7 7 6 5 5 3 2 2 0 1 3 3 4 4 5 6 4
2 0 2 1 2 4 2 3 5 6 7 4 3 4 5 8 9 10 11 11 11 10 8 8 7 7 6 7 5 4 5 5 5 5 4 3 3 2 2 2 2 3 5 6 7 7 6 6 6
2 1 5 3 0 3 2 6 4 3 8 6 6 4 9 15 12 12 10 10 9 8 8 8 7 6 5 5 4 5 5 3 2 3 3 4 2 2 3 1 3 4 5 6 8 9 9 8 9
2 1 3 1 1 4 9 9 6 4 6 8 12 13 14 14 11 10 9 9 9 10 9 8 7 6 4 4 5 4 2 2 2 2 3 4 3 3 4 5 6 6 7 7 8 8 9 10 6
1 2 2 6 3 3 7 8 5 5 9 5 7 12 12 12 8 6 4 3 5 4 4 6 5 5 5 6 4 3 3 3 3 5 4 4 4 4 4 3 3 4 4 5 5 4 4 6 5
2 1 3 5 5 3 6 6 8 12 6 6 11 11 11 10 5 2 3 3 4 5 4 5 5 5 6 5 5 5 5 4 4 4 5 4 4 4 5 4 4 4 3 5 5 4 4 6 7
1 3 1 4 8 9 12 13 9 11 8 10 12 12 11 10 8 8 7 7 4 2 2 4 6 7 7 7 5 5 5 5 5 5 6 5 5 5 5 5 5 6 5 5 5 5 5 6 6
2 2 2 3 5 6 12 7 1 8 6 11 12 12 12 12 10 9 11 10 8 7 7 7 7 7 9 8 8 6 5 5 6 5 6 7 6 6 6 6 7 6 6 6 6 5 6 7 7
1 2 2 7 3 5 10 8 8 5 7 11 12 11 12 12 12 11 10 9 9 7 8 8 7 8 6 8 7 6 5 5 4 5 6 8 8 8 8 8 7 7 6 7 6 6 6 7 8
3 2 4 5 3 4 5 5 3 5 8 9 9 9 10 12 12 10 10 9 9 8 9 9 8 7 6 2 3 3 3 3 3 4 4 7 8 9 8 7 8 7 6 6 7 6 6 7 6
3 4 2 1 6 1 1 6 2 3 6 7 7 8 8 9 11 11 10 9 10 10 10 10 9 8 6 4 4 5 6 4 3 3 4 6 6 7 6 7 7 7 7 7 8 6 6 6 7
5 4 2 1 5 8 11 10 4 4 6 6 6 7 7 9 10 9 10 10 10 11 11 11 10 10 6 5 7 6 7 5 5 5 5 8 7 9 8 8 9 7 7 7 8 9 7 8 8
4 7 5 2 4 7 9 8 5 5 6 6 6 6 6 7 6 8 9 9 10 12 12 12 12 13 7 5 4 5 6 6 6 6 9 10 10 11 10 8 8 6 8 8 8 7 9 8 5
5 8 5 6 5 5 7 6 4 4 3 2 3 4 4 5 6 7 7 9 11 11 11 11 13 13 9 6 5 4 3 5 6 6 8 11 11 10 9 9 6 7 6 5 6 7 4 4 2
3 3 3 3 7 9 8 5 6 4 4 4 3 3 3 2 4 6 6 8 9 11 12 13 10 9 10 9 6 5 5 5 6 7 7 9 11 11 10 9 9 8 6 6 7 7 7 6 4
4 3 5 6 2 1 2 3 4 6 7 7 7 7 5 5 4 5 6 7 9 10 10 10 9 9 10 9 9 11 8 6 5 5 6 6 10 10 11 10 7 6 5 5 5 5 6 6 9
4 4 5 3 4 2 3 5 3 1 10 12 9 8 7 5 3 3 4 5 6 7 7 6 7 9 9 10 9 7 8 5 5 5 8 9 9 11 12 11 10 9 5 6 8 8 8 7 8
11 5 6 4 1 5 2 4 5 5 6 5 11 10 8 7 4 2 1 2 3 5 5 5 6 7 8 8 9 10 9 7 6 8 7 7 7 8 12 11 10 9 9 10 8 7 6 5 5
2 3 3 3 3 2 2 5 5 2 7 6 14 12 10 8 7 5 4 2 0 1 4 5 6 7 7 8 8 8 7 7 7 7 7 8 7 8 10 11 10 9 10 9 7 8 8 8 7
2 3 4 5 4 3 3 6 1 3 3 5 10 8 8 10 8 7 6 5 4 2 2 4 5 6 6 6 6 5 5 4 4 5 5 5 5 7 9 9 9 11 10 10 8 7 5 5 4
5 3 3 5 2 4 3 3 5 1 4 6 9 10 12 10 9 9 8 8 7 6 4 4 4 4 4 4 3 4 3 4 5 4 4 4 4 5 7 8 10 11 10 10 9 7 7 5 5
1 8 3 1 4 5 3 5 6 6 8 10 13 15 14 11 12 11 10 10 8 6 5 6 5 5 4 2 1 0 2 3 4 3 4 4 4 6 7 8 9 10 11 10 9 8 8 8 5
5 4 5 2 2 5 5 3 3 6 11 13 15 16 15 14 13 12 11 10 9 8 7 7 8 8 7 5 3 3 2 3 4 4 4 4 5 5 6 7 8 10 11 11 9 8 8 9 8
2 2 6 5 5 2 4 5 3 4 4 10 13 14 13 13 12 12 13 12 11 10 10 9 8 7 6 5 4 5 5 5 6 6 6 5 6 5 6 6 8 9 10 10 9 9 9 9 8
Wind_Direction
85 135 312 270 263 293 346 67 122 133 118 50 119 116 58 39 13 42 109 132 143 140 146 153 149 145 142 136 124 118 113 111 113 115 117 116 115 116 117 117 114 111 108 104 100 99 101 103 107
116 123 167 54 300 345 58 290 296 106 104 112 105 120 75 66 53 109 137 150 151 140 144 151 145 142 142 136 126 121 117 114 114 115 117 117 117 117 118 119 117 113 108 104 102 100 96 98 115
130 27 283 59 44 3 347 205 19 72 170 73 93 49 35 21 54 135 116 147 146 145 147 147 145 145 148 144 137 134 130 126 125 124 121 119 119 117 115 115 112 109 103 99 95 88 83 68 47
119 142 115 265 236 246 266 346 296 101 87 69 72 75 93 46 105 143 144 146 145 144 146 136 139 143 151 146 139 132 128 127 127 124 119 117 111 104 102 102 100 100 97 92 82 46 13 4 7
61 164 153 196 257 262 258 303 290 38 95 128 56 86 76 48 63 127 144 150 145 142 148 145 139 150 157 155 149 139 134 132 133 130 127 121 115 108 97 84 72 62 55 53 26 346 332 345 342
140 307 198 206 253 299 313 315 260 143 87 109 95 102 81 93 124 139 146 153 148 146 152 152 146 156 161 164 158 147 143 143 142 139 135 129 119 110 98 82 62 27 3 344 332 327 322 325 327
226 187 71 323 310 299 359 39 161 117 114 72 83 103 94 116 138 142 145 146 146 153 157 158 161 160 162 167 167 155 149 148 147 143 141 140 134 133 134 135 90 311 308 298 294 297 304 311 315
120 168 126 183 20 59 42 112 96 98 75 95 3 125 148 145 143 148 156 149 149 152 154 162 170 173 183 178 177 173 166 162 159 157 155 153 157 161 188 212 192 289 296 298 295 289 283 285 288
180 115 69 78 228 83 97 124 80 80 97 67 10 49 97 129 144 151 152 151 148 158 172 180 179 186 188 190 181 193 190 182 176 189 183 189 224 226 241 326 255 252 268 282 292 295 294 293 273
315 48 5 351 245 115 85 89 84 114 96 68 78 93 112 132 149 153 160 158 174 181 186 192 199 198 199 207 202 209 213 224 217 218 260 281 278 254 260 267 257 257 262 263 269 277 285 268 276
87 28 334 350 32 54 84 77 45 114 62 34 129 121 121 128 139 149 160 196 212 212 210 211 214 220 223 220 199 208 204 214 215 231 231 223 250 259 262 271 265 270 231 259 236 240 248 275 278
273 25 271 354 358 67 74 73 65 46 43 92 113 116 119 120 115 141 187 219 218 214 235 248 240 243 237 230 221 204 215 217 228 239 247 247 245 251 276 281 277 253 259 285 275 272 256 254 257
332 19 140 11 84 62 95 68 83 62 63 97 103 96 89 82 70 60 40 35 33 1 312 277 257 237 232 231 230 225 231 227 246 241 246 247 262 272 275 274 278 284 285 270 270 278 286 276 263
336 306 31 74 102 115 106 59 135 57 88 95 90 80 71 62 50 48 36 28 23 18 2 343 323 261 242 229 235 234 236 236 235 247 258 261 263 263 270 267 265 271 273 281 289 295 303 294 291
127 168 70 49 59 104 114 46 60 68 107 98 86 71 64 55 50 42 33 30 12 1 356 355 341 355 277 257 247 244 250 256 275 282 278 268 265 265 273 275 268 271 267 274 274 283 287 285 292
33 52 199 49 9 77 257 116 100 55 120 92 81 75 64 50 45 37 32 33 28 23 18 13 4 10 33 12 261 260 268 283 305 293 288 282 273 265 265 267 268 269 268 266 265 266 265 271 275
34 185 227 150 36 219 237 138 120 91 121 97 84 72 68 65 53 43 44 47 42 36 29 27 22 18 22 56 107 109 88 60 46 14 2 346 314 301 282 269 266 259 258 255 261 253 251 253 253
150 149 122 177 28 59 101 118 143 102 118 100 86 77 73 68 52 43 44 44 48 48 42 37 33 27 38 78 81 84 66 51 32 18 4 349 344 340 321 293 279 257 250 246 241 251 236 248 253
135 124 124 64 60 81 87 126 134 131 132 128 111 105 100 84 71 62 52 51 57 51 49 41 39 35 40 47 56 54 58 40 32 22 19 11 6 357 341 331 314 272 256 258 240 237 244 250 269
153 137 104 102 58 91 151 124 146 152 139 151 144 139 120 112 92 75 67 65 62 60 54 52 45 39 37 49 62 77 89 57 41 33 30 23 15 9 2 354 343 349 333 297 293 275 292 286 288
77 137 154 96 103 82 155 159 182 156 164 170 199 210 184 140 110 96 84 74 76 60 47 46 45 43 44 48 76 84 86 62 33 28 29 23 18 15 13 11 6 354 336 325 318 303 293 292 267
146 132 119 118 218 321 280 253 223 193 210 209 201 209 199 183 169 134 115 86 66 57 54 51 45 46 50 48 65 67 65 62 37 27 33 34 28 24 19 14 10 6 353 344 327 301 257 257 267
107 69 71 83 92 252 166 253 125 213 238 222 214 215 209 205 194 140 101 82 59 55 59 63 64 58 54 57 59 68 67 67 52 46 34 30 31 30 26 20 12 14 0 349 338 332 320 301 289
144 93 63 67 64 244 48 263 235 197 238 221 205 213 210 209 214 228 4 8 45 75 70 74 78 71 69 67 63 64 64 51 44 36 35 31 25 20 23 18 15 14 10 7 351 341 340 339 342
126 146 255 224 204 287 117 248 299 284 233 256 203 200 202 205 209 214 227 239 222 78 55 76 74 75 77 80 71 62 59 56 53 33 32 25 28 21 14 10 14 13 10 10 17 24 33 15 3
148 227 253 271 255 314 169 242 125 337 308 231 208 196 201 209 206 214 218 224 207 182 84 101 97 89 72 66 64 60 50 53 50 42 37 40 29 24 11 12 13 14 17 16 15 13 14 16 15
141 184 47 105 72 267 294 265 229 163 159 181 193 199 212 210 209 215 213 216 210 205 183 161 138 120 100 74 63 55 50 46 46 38 28 36 31 25 24 21 16 14 11 11 6 16 17 15 358
271 131 161 130 258 271 222 273 261 212 202 181 195 207 214 212 213 211 210 207 207 206 188 187 197 187 184 199 188 81 22 15 4 356 20 13 6 1 4 8 11 9 7 1 352 355 4 358 3
151 164 66 100 259 269 282 241 220 233 205 201 205 209 214 214 212 210 207 206 208 204 199 200 203 204 207 218 236 274 301 306 303 308 316 326 327 337 342 349 354 357 358 356 348 345 349 342 343
14 158 182 230 207 235 299 255 16 297 241 221 223 224 226 222 206 204 201 199 202 205 208 206 207 217 218 231 254 268 282 282 282 278 278 286 297 310 315 324 334 342 346 347 341 334 334 331 329